Torna al catalogo

DELTA 1 DEB

AttivoPO
NORAD 8969·DEBRIS·🇺🇸 United States

Lanciato Jan 22, 1975 da Vandenberg Space Force Base

Loading…

Prossimi Passaggi (prossime 24 ore)

TLE

AggiornatoSource: Space-Track

Epoca: Sep 14, 2026, 10:19 UTC

1 08969U 75004BB  26257.42995915  .00000638  00000-0  20536-3 0  9990
2 08969  97.6844 328.8135 0115808 186.7285 173.2356 14.38442200628698

Traccia DELTA 1 DEB in tempo reale con AllMySat

Download on the App Store